Location: Eitze
(52.9840°N, 9.6894°E)
Time: 17:08:24
(UTC+00:00)

Cosmos 2278 - Pass Details

Date: 19 May 2025
Orbit: 839 x 850 km, 71.1° (Epoch: 17 June)

Event Time Altitude Azimuth Distance (km) Brightness Sun altitude
Rises 23:06:13 0° 325° (NW) 3,406 7.9 -17.0°
Reaches altitude 10° 23:08:47 10° 318° (NW) 2,467 6.9 -17.0°
Maximum altitude 23:14:02 41° 250° (WSW) 1,203 4.3 -17.0°
Enters shadow 23:16:34 26° 200° (SSW) 1,590 4.6 -17.0°
